• în România
  • Lista ţărilor
  • Pe 7 zile
  • Temperatura apei
  • Hartă satelitară
  • Meteo pe hartă
  • Widget-uri
  • user-avatar
    Intrare

    Meteo pe oră la Yulara

    Astăzi, 26 Martie, Duminică

    Timp Temperatura Precipitaţii Vânt Presiune Umiditate
    00:00 +30°C° 0 mm 4 m/s 715 mmHg 13%
    01:00 +29°C° 0 mm 4 m/s 714 mmHg 13%
    02:00 +29°C° 0 mm 4 m/s 714 mmHg 14%
    03:00 +28°C° 0 mm 4 m/s 714 mmHg 15%
    04:00 +28°C° 0 mm 4 m/s 714 mmHg 16%
    05:00 +27°C° 0 mm 3 m/s 714 mmHg 17%
    06:00 +27°C° 0 mm 3 m/s 714 mmHg 18%
    07:00 +29°C° 0 mm 3 m/s 714 mmHg 17%
    08:00 +32°C° 0 mm 4 m/s 715 mmHg 16%
    09:00 +35°C° 0 mm 3 m/s 715 mmHg 14%
    10:00 +37°C° 0 mm 3 m/s 715 mmHg 13%
    11:00 +39°C° 0 mm 3 m/s 715 mmHg 11%
    12:00 +42°C° 0 mm 3 m/s 714 mmHg 10%
    13:00 +43°C° 0 mm 3 m/s 714 mmHg 10%
    14:00 +43°C° 0 mm 3 m/s 714 mmHg 10%
    15:00 +44°C° 0 mm 3 m/s 713 mmHg 10%
    16:00 +42°C° 0 mm 3 m/s 713 mmHg 11%
    17:00 +40°C° 0 mm 3 m/s 714 mmHg 12%
    18:00 +39°C° 0 mm 2 m/s 714 mmHg 13%
    19:00 +38°C° 0 mm 2 m/s 714 mmHg 14%
    20:00 +37°C° 0 mm 2 m/s 714 mmHg 15%
    21:00 +36°C° 0 mm 2 m/s 715 mmHg 16%
    22:00 +36°C° 0 mm 2 m/s 715 mmHg 17%
    23:00 +35°C° 0 mm 2 m/s 715 mmHg 19%

    Mâine, 27 Martie, Luni

    Timp Temperatura Precipitaţii Vânt Presiune Umiditate
    00:00 +35°C° 0 mm 3 m/s 715 mmHg 20%
    01:00 +34°C° 0 mm 3 m/s 715 mmHg 22%
    02:00 +33°C° 0 mm 3 m/s 715 mmHg 25%
    03:00 +33°C° 0 mm 3 m/s 715 mmHg 28%
    04:00 +32°C° 0 mm 4 m/s 715 mmHg 30%
    05:00 +32°C° 0 mm 5 m/s 715 mmHg 32%
    06:00 +30°C° 0 mm 6 m/s 715 mmHg 34%
    07:00 +32°C° 0 mm 8 m/s 716 mmHg 36%
    08:00 +32°C° 0 mm 9 m/s 716 mmHg 38%
    09:00 +33°C° 0 mm 11 m/s 717 mmHg 40%
    10:00 +34°C° 0 mm 11 m/s 717 mmHg 38%
    11:00 +37°C° 0 mm 10 m/s 717 mmHg 35%
    12:00 +38°C° 0 mm 10 m/s 717 mmHg 33%
    13:00 +38°C° 0 mm 10 m/s 717 mmHg 32%
    14:00 +39°C° 0 mm 10 m/s 716 mmHg 31%
    15:00 +39°C° 0 mm 10 m/s 716 mmHg 30%
    16:00 +38°C° 0 mm 10 m/s 716 mmHg 32%
    17:00 +36°C° 0 mm 10 m/s 716 mmHg 34%
    18:00 +34°C° 0 mm 10 m/s 716 mmHg 36%
    19:00 +33°C° 0 mm 9 m/s 717 mmHg 37%
    20:00 +32°C° 0 mm 9 m/s 717 mmHg 38%
    21:00 +31°C° 0 mm 8 m/s 718 mmHg 39%
    22:00 +29°C° 0 mm 8 m/s 718 mmHg 39%
    23:00 +28°C° 0 mm 7 m/s 718 mmHg 39%

    Poimâine, 28 Martie, Marţi

    Timp Temperatura Precipitaţii Vânt Presiune Umiditate
    00:00 +28°C° 0 mm 6 m/s 718 mmHg 38%
    01:00 +27°C° 0 mm 5 m/s 718 mmHg 38%
    02:00 +26°C° 0 mm 5 m/s 717 mmHg 37%
    03:00 +26°C° 0 mm 4 m/s 717 mmHg 37%
    04:00 +25°C° 0 mm 4 m/s 717 mmHg 36%
    05:00 +25°C° 0 mm 4 m/s 717 mmHg 36%
    06:00 +25°C° 0 mm 4 m/s 718 mmHg 35%
    07:00 +26°C° 0 mm 5 m/s 718 mmHg 32%
    08:00 +27°C° 0 mm 6 m/s 718 mmHg 29%
    09:00 +28°C° 0 mm 6 m/s 719 mmHg 26%
    10:00 +30°C° 0 mm 6 m/s 718 mmHg 25%
    11:00 +33°C° 0 mm 6 m/s 718 mmHg 24%
    12:00 +35°C° 0 mm 5 m/s 718 mmHg 23%
    13:00 +36°C° 0 mm 5 m/s 717 mmHg 22%
    14:00 +37°C° 0 mm 5 m/s 716 mmHg 21%
    15:00 +38°C° 0 mm 4 m/s 716 mmHg 21%
    16:00 +37°C° 0 mm 4 m/s 716 mmHg 21%
    17:00 +36°C° 0 mm 4 m/s 716 mmHg 22%
    18:00 +36°C° 0 mm 4 m/s 716 mmHg 23%
    19:00 +34°C° 0 mm 5 m/s 716 mmHg 25%
    20:00 +33°C° 0 mm 6 m/s 716 mmHg 26%
    21:00 +32°C° 0 mm 6 m/s 717 mmHg 28%
    22:00 +30°C° 0 mm 6 m/s 717 mmHg 29%
    23:00 +29°C° 0 mm 6 m/s 717 mmHg 30%

    29 Martie, Miercuri

    Timp Temperatura Precipitaţii Vânt Presiune Umiditate
    00:00 +28°C° 0 mm 6 m/s 717 mmHg 30%
    01:00 +28°C° 0 mm 5 m/s 717 mmHg 31%
    02:00 +27°C° 0 mm 5 m/s 716 mmHg 32%
    03:00 +26°C° 0 mm 5 m/s 716 mmHg 32%
    04:00 +26°C° 0 mm 4 m/s 716 mmHg 33%
    05:00 +26°C° 0 mm 4 m/s 716 mmHg 33%
    06:00 +25°C° 0 mm 4 m/s 716 mmHg 33%
    07:00 +27°C° 0 mm 4 m/s 717 mmHg 30%
    08:00 +28°C° 0 mm 4 m/s 718 mmHg 27%
    09:00 +30°C° 0 mm 5 m/s 718 mmHg 24%
    10:00 +33°C° 0 mm 4 m/s 718 mmHg 23%
    11:00 +34°C° 0 mm 4 m/s 718 mmHg 21%
    12:00 +36°C° 0 mm 4 m/s 718 mmHg 20%
    13:00 +37°C° 0 mm 4 m/s 717 mmHg 19%
    14:00 +39°C° 0 mm 5 m/s 717 mmHg 19%
    15:00 +39°C° 0 mm 5 m/s 717 mmHg 18%
    16:00 +38°C° 0 mm 6 m/s 717 mmHg 19%
    17:00 +36°C° 0 mm 7 m/s 717 mmHg 20%
    18:00 +35°C° 0 mm 8 m/s 717 mmHg 20%
    19:00 +34°C° 0 mm 8 m/s 718 mmHg 21%
    20:00 +32°C° 0 mm 8 m/s 718 mmHg 22%
    21:00 +31°C° 0 mm 8 m/s 719 mmHg 23%
    22:00 +29°C° 0 mm 9 m/s 719 mmHg 22%
    23:00 +27°C° 0 mm 9 m/s 719 mmHg 22%

    30 Martie, Joi

    Timp Temperatura Precipitaţii Vânt Presiune Umiditate
    00:00 +26°C° 0 mm 9 m/s 720 mmHg 22%
    01:00 +24°C° 0 mm 9 m/s 720 mmHg 29%
    02:00 +23°C° 0 mm 9 m/s 720 mmHg 36%
    03:00 +21°C° 0 mm 9 m/s 719 mmHg 43%
    04:00 +19°C° 0 mm 9 m/s 720 mmHg 51%
    05:00 +18°C° 0 mm 9 m/s 720 mmHg 58%
    06:00 +17°C° 0 mm 8 m/s 720 mmHg 65%
    07:00 +18°C° 0 mm 9 m/s 721 mmHg 62%
    08:00 +18°C° 0 mm 9 m/s 721 mmHg 58%
    09:00 +18°C° 0 mm 9 m/s 722 mmHg 54%
    10:00 +22°C° 0 mm 9 m/s 721 mmHg 45%
    11:00 +24°C° 0 mm 9 m/s 721 mmHg 37%
    12:00 +27°C° 0 mm 8 m/s 721 mmHg 29%
    13:00 +28°C° 0 mm 8 m/s 720 mmHg 25%
    14:00 +28°C° 0 mm 8 m/s 720 mmHg 21%
    15:00 +29°C° 0 mm 8 m/s 719 mmHg 18%
    16:00 +28°C° 0 mm 7 m/s 719 mmHg 19%
    17:00 +27°C° 0 mm 7 m/s 720 mmHg 20%
    18:00 +26°C° 0 mm 6 m/s 720 mmHg 21%
    19:00 +23°C° 0 mm 6 m/s 720 mmHg 23%
    20:00 +22°C° 0 mm 6 m/s 721 mmHg 26%
    21:00 +20°C° 0 mm 6 m/s 721 mmHg 28%
    22:00 +19°C° 0 mm 5 m/s 721 mmHg 29%
    23:00 +19°C° 0 mm 5 m/s 721 mmHg 30%

    31 Martie, Vineri

    Timp Temperatura Precipitaţii Vânt Presiune Umiditate
    00:00 +17°C° 0 mm 5 m/s 721 mmHg 31%
    01:00 +16°C° 0 mm 5 m/s 721 mmHg 31%
    02:00 +15°C° 0 mm 4 m/s 721 mmHg 32%
    03:00 +14°C° 0 mm 4 m/s 721 mmHg 33%
    04:00 +14°C° 0 mm 4 m/s 721 mmHg 32%
    05:00 +14°C° 0 mm 4 m/s 721 mmHg 32%
    06:00 +13°C° 0 mm 4 m/s 721 mmHg 32%
    07:00 +15°C° 0 mm 5 m/s 721 mmHg 31%
    08:00 +17°C° 0 mm 5 m/s 721 mmHg 31%
    09:00 +19°C° 0 mm 6 m/s 721 mmHg 30%
    10:00 +21°C° 0 mm 6 m/s 721 mmHg 26%
    11:00 +23°C° 0 mm 6 m/s 721 mmHg 23%
    12:00 +24°C° 0 mm 6 m/s 720 mmHg 19%
    13:00 +26°C° 0 mm 6 m/s 720 mmHg 18%
    14:00 +27°C° 0 mm 6 m/s 719 mmHg 16%
    15:00 +28°C° 0 mm 6 m/s 719 mmHg 15%
    16:00 +27°C° 0 mm 6 m/s 719 mmHg 16%
    17:00 +26°C° 0 mm 6 m/s 719 mmHg 17%
    18:00 +25°C° 0 mm 5 m/s 719 mmHg 19%
    19:00 +23°C° 0 mm 5 m/s 719 mmHg 21%
    20:00 +21°C° 0 mm 5 m/s 720 mmHg 23%
    21:00 +20°C° 0 mm 5 m/s 720 mmHg 26%
    22:00 +19°C° 0 mm 5 m/s 720 mmHg 28%
    23:00 +19°C° 0 mm 5 m/s 720 mmHg 30%
    Arată mai mult